Simultaneous Nadir Overpasses (SNOs) Predictions

Prediction of SNOs between AQUA and NPP Satellite Orbit:

Table of predicted SNOs for the next 14.0 days since TLE Epoch: 8/3/2024
Index Date (AQUA) Time (AQUA) Lat,Lon (AQUA) SZA (AQUA ) Date (NPP) Time (NPP) Lat,Lon (NPP) SZA (NPP ) Distance(km) Time Diff (sec)
1 08/05/2024 07:56:13 80.39, -26.13 73.21 08/05/2024 07:55:00 80.77, -27.58 73.48 49.76 73
2 08/05/2024 08:45:00 -81.27, 153.87 108.66 08/05/2024 08:45:07 -81.28, 153.90 108.67 0.67 7
3 08/07/2024 20:48:11 81.28, 153.27 72.00 08/07/2024 20:48:18 81.28, 153.42 71.97 2.52 7
4 08/10/2024 08:02:13 81.00, -20.01 73.38 08/10/2024 08:01:00 81.15, -20.61 73.53 19.02 73
5 08/10/2024 08:51:22 -81.28, 152.55 107.32 08/10/2024 08:51:30 -81.28, 152.54 107.32 0.22 8
6 08/12/2024 20:05:10 -81.27, -16.06 106.58 08/12/2024 20:03:58 -81.27, -16.12 106.52 1.09 72
7 08/12/2024 20:54:30 81.29, 151.93 73.39 08/12/2024 20:54:41 81.28, 151.86 73.39 1.29 11
8 08/15/2024 08:08:16 81.27, -16.87 74.18 08/15/2024 08:07:08 81.27, -16.91 74.23 0.75 68



Historial Predications of SNOs between AQUA and NPP
